Starlink 32225

operational
NORAD ID: 62036 Int'l Des: 2024-216 Owner: SPXS Country: US Constellation: starlink
LEOCIRCULAR

关于 Starlink 32225

正在加载描述...

实时位置

正在加载3D地球...

即将过境

高度历史

Altitude vs Time

uPlot chart will show altitude changes over time

两行轨道根数

1 62036U 24216E 25305.92416318 .00025041 00000-0 91622-3 0 9996
2 62036 43.0007 258.0423 0000795 250.5798 109.4968 15.27587023 54404
Epoch: Nov 1, 2025 • Age: 30 hours

当前状态

高度 491.0 km
速度 7.62 km/s
星下点 -31.13°S, 111.6°E
发射日期 Nov 21, 2024
运行时间 0.9 years
类型 internet

技术详情

分类 Payload
质量 730.00 kg
干质量 700.00 kg
总质量 730.00 kg
长度 0.30 m
直径 4.10 m
跨度 29.00 m
形状 Box + pan
制造商 SPXS
平台类型 Starlink V2M
阶段状态 In Orbit
所有者/国家 SPXS/US

大型星座

Loading constellations...